Location: ????????
(55.3155°N, 39.2900°E)
Time: 22:42:01
(UTC+00:00)

Cosmos 192 - Pass Details

Date: 14 April 2024
Orbit: 699 x 710 km, 74.0° (Epoch: 22 May)

Event Time Altitude Azimuth Distance (km) Brightness Sun altitude
Rises 00:25:43 0° 330° (NNW) 3,097 7.8 -14.9°
Reaches altitude 10° 00:28:05 10° 325° (NW) 2,175 7.0 -14.6°
Maximum altitude 00:32:50 53° 250° (WSW) 866 4.4 -14.1°
Drops below altitude 10° 00:37:35 10° 174° (S) 2,165 6.5 -13.6°
Sets 00:39:56 0° 170° (S) 3,080 7.3 -13.3°
